Weather Roundup
Issued by NWS Corpus Christi, TX

Home | Current Version | Previous Version | Text Only | Print | Product List | Glossary On
Versions: 1 2 3 4 5 6 7 8 9 10 11 12 13 14 15 16 17 18 19 20 21 22 23 24 25 26 27 28 29 30 31 32 33 34 35 36 37 38 39 40 41 42 43 44 45 46 47 48 49 50
000
ASUS44 KCRP 310310
HRRCRP

SOUTH TEXAS REGIONAL WEATHER ROUNDUP
NATIONAL WEATHER SERVICE CORPUS CHRISTI TX
1000 PM CDT THU JUL 30 2015


TXZ229>244-310400-
...CORPUS CHRISTI AREA OBSERVATIONS...

CITY           SKY/WX    TMP DP  RH WIND       PRES   REMARKS
CORPUS CHRISTI MOCLDY    84  73  69 SE8       30.01R HX  90
NAS CORPUS CHR MOCLDY    82  75  79 S9        30.01R
ROCKPORT         N/A     84  76  76 S7        30.00R HX  93
KINGSVILLE NAS MOCLDY    81  77  88 SE9       30.01R
ALICE          CLEAR     82  72  71 SE9       30.00R
FALFURRIAS     PTCLDY    81  73  75 SE5       30.00R
$$

...VICTORIA AREA OBSERVATIONS...

CITY           SKY/WX    TMP DP  RH WIND       PRES   REMARKS
VICTORIA       PTCLDY    81  76  84 S6        30.01R
BEEVILLE       FAIR      82  68  62 S6        30.01R
PLEASANTON     CLEAR     87  66  49 SE3       30.01R
SAN ANTONIO    MOCLDY    87  66  49 SE6       30.04R
$$

...LAREDO AREA OBSERVATIONS...

CITY           SKY/WX    TMP DP  RH WIND       PRES   REMARKS
LAREDO         CLEAR     92  66  42 E15       30.00R HX  94
COTULLA        CLEAR     91  62  37 SE7       29.99R HX  91
DEL RIO        CLEAR     91  57  31 SE8       30.00R
MCALLEN        CLEAR     88  73  61 SE12      30.00R HX  95
HEBBRONVILLE     N/A     84  63  48 E6        30.03R
$$

...OTHER TEXAS OBSERVATIONS...

CITY           SKY/WX    TMP DP  RH WIND       PRES   REMARKS
BROWNSVILLE    CLEAR     80  75  84 SE6       30.01R
HOUSTON        MOCLDY    80  78  94 CALM      30.00S
COL. STATION   MOCLDY    84  73  69 SE8       30.01R HX  90
AUSTIN         PTCLDY    82  70  66 CALM      30.01R
WACO           CLEAR     89  66  46 E5        30.01R HX  91
FORT WORTH     MOCLDY    93  63  36 E6        30.01R HX  94
WICHITA FALLS  CLEAR     87  68  52 E7        30.05R HX  90
LUBBOCK        MOCLDY    78  66  66 E7        30.20R
EL PASO        CLOUDY    83  60  45 N8        30.16R
$$

...MARINE OBSERVATIONS...

STATION/POSITION TIME  SKY/WX   TEMP    WIND        PRES    VSBY  WAVE   SWELL
                                AIR SEA DIR/SP/G                  HT/PER HT/PER
                 (UTC)          (F)     (DEG/KT/KT) (MB)    (MI)  (FT/S) (FT/S)
PORT ARANSAS     0300            83 87  160/ 11/ 12 1016.8R
BUOY 90 E PORT A 0250            85 87  240/  8/  8 1016.0R         2/ 5   2/ 5
BUOY 45 SE BAFFI 0250            84 86  150/  6/  6 1016.1R         1/ 6   2/ 6
BUOY 200 E PT IS 0250            86 87  320/  6/  8 1016.2R         1/ 9   2/ 9
BUOY 15 E GALVES 0250            86 87   90/ 12/ 16 1015.6R         1/ 5
$$



USA.gov is the U.S. government's official web portal to all federal, state and local government web resources and services.